Notices

What's New in latest Release from April 7th, 2021:

- Updated Glossary, including Speed of Maximum Gust, and Total Hourly Precipitation

- Updated national and regional climate services offices contacts and prices information

- Addition of station inventory lists for 1981-2010, 1971-2000, and 1961-1990 Normals.

If you haven't already, please take our survey and provide feedback about our website: https://eccc.sondage-survey.ca/f/LanguageSelection.aspx?s=442ca660-fcf1-47c0-95a9-59707d6fd709

Hourly Data Report for April 11, 2017

KUGAARUK CLIMATE
NUNAVUT

68°32'15.060" N
89°47'47.020" W
15.80 m
2303094
71407
NBB

Download Data

Hourly Data (April 2017)
Hourly Data Report for April 11, 2017
TIME
LST
Temp Definition
°C
Dew Point Definition
°C
Rel Hum Definition
%
Precip. Amount Definition
mm

Wind Dir Definition
10's deg

Wind Spd Definition
km/h
Visibility Definition
km
Stn Press Definition
kPa
Hmdx Definition


Wind Chill Definition


Weather Definition


00:00 -10.6 -11.9 90 0.0 36 50   100.17   -23 LegendNANA
01:00 -12.3 -13.8 89 0.0 36 53   100.24   -25 LegendNANA
02:00 -13.3 -14.9 88 0.2 1 57   100.30   -27 LegendNANA
03:00 -14.7 -16.4 87 0.0 1 57   100.37   -29 LegendNANA
04:00 -15.7 -17.5 86 0.0 36 55   100.51   -30 LegendNANA
05:00 -16.1 -18.0 85 0.0 36 44   100.70   -29 LegendNANA
06:00 -16.0 -17.8 86 0.0 28 11   100.88   -23 LegendNANA
07:00 -16.5 -18.7 83 0.0 8 9   100.95   -23 LegendNANA
08:00 -17.4 -19.9 81 0.0 34 8   101.05   -23 LegendNANA
09:00 -17.0 -19.3 83 0.0 34 12   101.14   -24 LegendNANA
10:00 -17.6 -20.3 80 0.0 33 13   101.24   -25 LegendNANA
11:00 -18.3 -20.9 80 0.0 34 16   101.34   -27 LegendNANA
12:00 -18.2 -21.2 77 0.0 35 32   101.38   -31 LegendNANA
13:00 -17.9 -20.8 78 0.0 34 37   101.47   -31 LegendNANA
14:00 -17.9 -21.0 76 0.0 33 18   101.56   -27 LegendNANA
15:00 -18.1 -20.9 79 0.0 34 34   101.61   -31 LegendNANA
16:00 -18.2 -21.0 79 0.0 32 44   101.63   -32 LegendNANA
17:00 -18.6 -21.5 78 0.0 32 26   101.78   -30 LegendNANA
18:00 -18.9 -21.6 79 0.0 32 41   101.77   -33 LegendNANA
19:00 -19.1 -21.9 79 0.2 31 31   101.87   -32 LegendNANA
20:00 -20.8 -23.5 79 0.0 24 25   101.95   -33 LegendNANA
21:00 -21.9 -24.6 78 0.0 24 30   102.00   -35 LegendNANA
22:00 -24.2 -27.2 76 0.0 23 21   102.04   -36 LegendNANA
23:00 -24.6 -27.6 76 0.0 25 23   102.05   -37 LegendNANA

Notes on Data Quality.

Legend

  • E = Estimated
  • M = Missing
  • NA = Not Available*
  • [empty] = Indicates an unobserved value
Date modified: